Powrót do katalogu

STARLINK-36877

AktywnyŁącznośćSSO
NORAD 67896·PAYLOAD·🇺🇸 United States

Wystrzelony Feb 21, 2026 z Vandenberg Space Force Base

Loading…

Następne Przeloty (najbliższe 24 godziny)

TLE

ŚwieżeSource: CelesTrak SupGP

Epoka: Sep 15, 2026, 04:03 UTC

1 67896C 26035T   26258.16923611  .00101050  00000+0  31370-2 0  2584
2 67896  97.2847 190.1313 0002042  97.7577  74.5019 15.33385991    17

Śledź STARLINK-36877 w czasie rzeczywistym z AllMySat

Download on the App Store